Regional Weather Roundup
Issued by NWS Newport/Morehead, NC

Current Version | Previous Version | Text Only | Print | Product List | Glossary Off
Versions: 1 2 3 4 5 6 7 8 9 10 11 12 13 14 15 16 17 18 19 20 21 22 23 24 25 26 27 28 29 30 31 32 33 34 35 36 37 38 39 40 41 42 43 44 45 46 47 48 49 50
000 ASUS42 KMHX 231312 RWRMHX WEATHER ROUNDUP FOR EASTERN NORTH CAROLINA NATIONAL WEATHER SERVICE NEWPORT/MOREHEAD CITY NC 900 AM EDT SAT MAY 23 2015 NOTE: "FAIR" INDICATES FEW OR NO CLOUDS BELOW 12,000 FEET WITH NO SIGNIFICANT WEATHER AND/OR OBSTRUCTIONS TO VISIBILITY NCZ015>017-031-032-045>047-102-103-231400- NORTH COAST CITY SKY/WX TMP DP RH WIND PRES REMARKS EDENTON MOSUNNY 65 54 68 NE8 30.41R ELIZABETH CITY SUNNY 67 53 61 NE15 30.41R KITTY HAWK MOSUNNY 67 53 61 N9 30.39R MANTEO MOSUNNY 68 52 56 N9 30.40R $$ NCZ045>047-081-094-103-104-231400- CENTRAL COAST CITY SKY/WX TMP DP RH WIND PRES REMARKS FRISCO SUNNY 71 53 52 N5 30.38R SWANQUARTER N/A 70 N/A N/A NW7G13 30.36R $$ NCZ095-097-098-100-101-231400- SOUTHERN COAST CITY SKY/WX TMP DP RH WIND PRES REMARKS BEAUFORT SUNNY 70 58 65 NW6 30.39R CEDAR ISLAND N/A 70 N/A N/A NW5 30.41S JACKSONVILLE SUNNY 68 57 68 NW3 30.39R PINEY ISLAND SUNNY N/A N/A N/A NW5 30.38R WILMINGTON SUNNY 69 58 67 NE7 30.39R $$ NCZ011>013-027>030-043-044-078>080-089-090>093-098-231400- COASTAL PLAIN CITY SKY/WX TMP DP RH WIND PRES REMARKS AHOSKIE SUNNY 64 47 53 N10 30.43R CLINTON SUNNY 68 55 62 CALM 30.41S ELIZABETHTOWN SUNNY 64 55 72 CALM 30.40R GOLDSBORO N/A N/A N/A N/A MISG N/A GREENVILLE SUNNY 64 52 63 N10 30.41R HAVELOCK SUNNY 69 53 56 CALM 30.40R KENANSVILLE SUNNY 65 53 63 CALM 30.42R KINSTON SUNNY 64 54 68 N9 30.42R NEW BERN SUNNY 69 58 67 W3 30.41R RICHLANDS SUNNY 66 55 68 CALM 30.41R ROCKY MOUNT MOSUNNY 65 45 48 NE14 30.43R WASHINGTON SUNNY 64 52 67 N6 30.41R WHITEVILLE SUNNY 66 57 71 CALM 30.40R $$ AMZ130-135-150-152-154-156-158-170-250-252-270-ANZ085-086-088-633-658-670-231400- MARINE OBSERVATIONS STATION/POSITION TIME TEMP WIND PRES WAVE SWELL AIR SEA DIR/SP/G HT/PER HT/PER (UTC) (F) (DEG/KT/KT) (MB) (FT/S) (FT/S) CHESAPEAKE LIGHT 1200 62 20/ 19/ 23 1029.3 64 E VA BEACH 1250 62 60 20/ 14/ 16 1029.0 2/ 9 2/ 9 DUCK 1200 63 64 350/ 6/ 7 1027.7 2 E DUCK 1211 64 N/A 1/ 9 OREGON INLET 1200 68 69 340/ 8/ 12 1028.6 13E OREGON INLT 1300 62 N/A 2/ 9 HATTERAS CG 1200 71 71 310/ 6/ 6 1027.6 DIAMOND BUOY 1250 71 77 350/ 6/ 8 1028.5 3/10 3/10 CAPE LOOKOUT 1300 69 350/ 5/ 6 1028.5 BEAUFORT LAB 1200 67 73 10/ 3/ 4 1027.4 27 SE WRIGHTSVLE 1200 68 77 80/ 12/ 14 N/A 5 SE WRIGHTSVLE 1208 71 76 80/ 10/ 16 1028.3 225 S CAPE HAT 1250 71 74 50/ 17/ 21 1026.3 5/ 8 3/ 8 41 SE CHARLESTON 1250 72 75 50/ 16/ 21 1026.7 4/ 5 2/ 8 $$

USA.gov is the U.S. government's official web portal to all federal, state and local government web resources and services.